Theta_e
352 351 354 355 350 349 345 338 315 316 310 306 306 307 308 319 318 318 317 320 316 325 329 326 324 324 322 318 318 321 324 315 313 302 301 313 341 345 346 348 350 351 352 353 354 354 354 355 356 359 360 361 361 361 361 362 362 362 361 363 364 364 363 363 362 362 363 362 363 363 363 362 361 361 361 361 361 361 361 360 362 362 361 362 361 361 362 362 360 361 361 362 363 363 363 363 362
348 350 353 356 346 344 331 336 313 308 307 305 308 311 312 318 318 316 316 318 319 323 326 326 328 329 328 327 327 325 321 328 328 325 333 341 345 345 349 351 352 351 353 356 357 355 354 356 358 361 361 362 360 361 360 361 363 362 362 362 362 363 363 363 363 363 363 363 362 362 363 363 362 361 361 361 361 362 361 362 362 361 361 362 360 360 360 360 360 361 361 363 362 362 363 363 362
347 349 353 353 346 342 337 333 308 305 304 300 306 309 316 315 315 317 320 321 324 326 328 329 330 328 326 326 320 319 313 332 333 335 335 343 339 343 351 352 353 354 355 358 358 357 356 358 361 361 361 361 361 361 360 361 361 362 362 362 362 363 363 363 362 363 363 362 362 361 363 362 361 362 361 362 362 360 361 361 361 360 361 362 361 360 361 359 357 357 362 362 363 363 362 362 362
357 361 349 345 334 340 323 319 311 306 304 303 304 314 315 315 316 320 323 325 326 328 327 326 323 329 325 320 322 328 326 326 333 335 334 338 335 348 352 353 355 355 357 357 358 357 356 360 360 360 361 361 360 360 361 360 361 361 361 361 361 362 363 363 362 363 361 361 361 360 363 362 362 362 362 361 361 361 361 361 360 360 359 361 362 359 359 357 358 360 362 364 363 362 362 362 361
358 356 358 346 333 323 323 317 313 307 304 304 305 311 318 318 319 321 323 326 327 327 326 327 324 329 330 325 328 317 319 332 334 337 336 341 348 351 352 353 354 355 355 357 358 356 357 361 361 362 360 360 357 359 359 361 360 360 360 357 352 357 354 361 360 361 361 361 361 360 360 362 362 361 361 361 360 361 362 361 361 361 361 360 360 360 358 357 359 362 364 363 363 362 362 362 362
355 356 357 351 331 337 326 314 311 307 310 310 310 314 318 320 320 322 324 326 328 328 328 326 324 323 325 327 330 324 332 324 334 337 340 340 349 352 353 355 354 354 356 355 355 354 355 360 360 361 361 360 359 360 360 360 361 359 358 355 357 358 358 360 358 360 362 361 358 358 361 361 362 362 362 359 357 360 362 361 361 361 359 359 360 359 358 359 359 363 362 363 363 363 362 361 360
346 347 344 343 339 338 316 312 310 311 316 315 314 316 318 320 322 323 323 324 326 327 329 325 328 326 322 328 331 335 338 339 336 338 343 346 350 352 353 353 353 352 354 354 354 354 357 360 359 360 361 361 361 361 360 359 356 357 357 355 355 357 357 360 356 358 358 359 356 356 358 359 361 364 363 361 360 362 361 361 362 361 359 359 360 359 358 359 362 362 362 361 362 362 361 361 360
356 340 334 324 323 326 317 315 315 315 316 320 322 318 320 322 323 323 322 321 321 321 325 326 328 324 322 332 322 334 340 343 342 346 347 349 350 351 353 353 351 352 353 353 353 356 358 358 358 359 359 357 359 360 357 353 355 356 354 351 354 354 357 358 357 355 356 356 355 355 358 360 360 361 362 361 361 361 361 362 361 361 361 361 361 359 360 362 362 362 361 362 362 361 361 360 360
347 341 339 326 320 323 318 316 317 324 323 325 321 328 328 324 324 323 321 323 323 324 324 325 325 320 323 327 325 335 339 344 346 348 347 348 349 352 352 352 351 351 353 354 356 357 356 355 354 355 358 359 359 359 356 355 354 354 351 348 352 353 355 357 355 356 354 354 357 356 356 359 360 358 362 362 362 362 362 362 362 361 362 361 363 362 362 362 361 361 362 361 361 361 360 360 360
339 337 323 324 324 315 316 316 313 318 319 325 321 323 323 324 323 324 322 321 322 324 326 329 327 322 327 324 326 332 336 344 345 344 346 348 351 352 351 352 352 352 353 354 355 356 354 353 356 357 357 358 357 357 357 355 355 354 352 350 352 355 356 358 357 356 356 354 356 358 358 359 360 359 361 361 362 362 362 362 362 362 361 360 361 362 361 362 362 362 361 362 361 361 360 359 358
328 333 332 318 315 314 312 314 317 321 321 325 323 327 326 325 324 322 323 322 326 324 326 330 325 325 326 326 327 340 344 344 342 341 346 349 351 351 351 353 353 353 353 354 356 353 351 355 357 358 358 358 357 355 356 355 355 354 355 353 354 356 357 357 356 357 357 355 357 359 359 360 360 360 361 361 361 362 362 362 362 362 362 362 362 361 361 362 362 362 362 362 362 361 360 360 360
325 324 324 315 314 314 316 314 319 320 320 321 321 329 331 325 325 321 322 321 323 324 324 328 323 329 324 324 327 337 341 341 343 346 348 350 350 351 352 352 354 354 355 355 355 350 351 352 355 357 357 356 356 356 355 355 357 356 356 357 357 357 357 355 355 354 354 355 358 359 358 358 359 359 360 360 361 361 362 361 360 361 360 361 362 362 362 363 363 362 363 362 362 361 361 360 361
327 325 320 317 317 320 320 317 318 319 316 318 320 328 328 325 323 323 323 323 324 322 324 329 331 329 320 324 333 338 337 343 347 348 349 350 350 351 352 353 354 355 356 356 353 348 347 348 352 351 353 354 356 357 356 356 357 357 357 357 356 357 358 354 356 355 354 354 357 359 359 359 359 359 360 360 360 360 361 360 360 361 361 361 362 362 363 363 363 362 363 362 361 362 361 361 360
327 325 323 316 324 322 319 318 320 313 313 320 327 327 328 325 325 325 325 321 322 321 327 332 331 331 326 330 330 332 336 346 348 349 350 350 351 351 351 353 353 354 355 354 350 347 345 347 349 351 351 350 351 356 356 357 356 357 357 356 357 356 355 355 355 356 356 356 357 359 359 358 358 359 359 359 361 361 360 360 360 361 362 362 362 362 362 363 363 362 362 362 361 361 361 361 361
329 333 323 319 317 320 322 315 316 315 315 323 328 325 328 332 328 326 325 321 322 330 333 337 334 327 320 325 325 331 338 345 347 349 348 349 350 350 351 352 353 353 354 353 352 352 350 349 349 350 351 350 351 351 352 354 355 356 357 356 356 356 355 354 355 356 354 355 356 359 358 358 358 359 359 359 360 361 360 360 360 361 361 360 361 361 362 363 363 362 362 362 362 361 361 361 361
335 331 324 316 315 316 318 319 323 317 318 329 329 327 325 326 330 326 327 328 326 332 333 327 334 325 329 328 330 337 343 345 347 348 348 348 349 349 350 351 351 352 352 353 352 352 352 349 349 349 349 350 350 350 349 351 355 354 356 355 356 355 355 354 354 355 355 354 357 358 357 357 357 357 360 359 359 360 360 360 361 360 361 362 362 362 362 362 361 361 361 360 360 360 360 359 360
340 331 316 314 313 316 318 318 319 313 323 329 330 325 321 322 329 330 335 333 326 326 329 329 330 336 332 331 337 343 345 348 349 347 346 345 345 345 346 347 348 349 350 352 352 352 350 350 351 351 350 350 350 349 348 350 354 355 355 356 356 355 354 354 353 352 353 355 356 357 356 350 350 351 355 357 359 359 360 360 359 361 361 361 361 362 362 362 363 363 362 362 360 358 359 361 360
331 319 315 313 315 315 323 322 322 329 325 326 325 325 323 320 327 329 331 326 327 327 328 331 336 335 336 339 343 345 346 345 346 344 342 342 343 342 343 344 345 345 347 349 352 351 351 352 353 351 350 350 351 349 349 351 352 352 351 353 355 354 352 353 353 352 351 350 355 354 350 350 347 348 352 356 359 359 359 360 360 362 361 361 361 362 362 362 362 362 361 361 361 364 362 355 357
324 319 316 313 318 323 330 330 331 331 326 331 328 326 324 324 325 327 323 321 324 324 326 331 331 334 338 341 342 343 344 344 343 342 341 340 341 340 341 343 343 345 346 348 350 349 349 351 353 353 352 352 350 350 351 349 350 352 352 351 352 351 354 354 354 352 347 349 349 352 352 349 348 349 354 357 362 360 361 360 360 361 361 361 361 362 361 362 361 362 361 363 363 362 355 354 356
331 318 314 315 327 328 332 332 334 336 337 329 325 327 326 326 326 329 322 320 323 322 324 327 328 330 334 338 341 342 343 342 342 341 340 340 341 341 341 342 343 344 346 348 348 349 350 350 350 353 352 352 351 351 350 349 351 351 350 352 351 351 353 353 352 351 350 347 350 353 354 352 350 350 357 359 363 357 359 360 361 362 362 362 363 359 362 363 361 360 360 362 359 358 354 355 356
331 323 316 320 327 326 332 334 334 336 340 331 330 329 325 328 327 325 322 320 320 323 327 328 328 331 334 337 339 341 341 341 341 341 340 340 341 342 342 343 343 344 346 350 350 348 349 350 351 352 353 352 351 351 351 351 353 351 351 352 353 352 352 353 353 352 353 353 354 354 355 355 354 355 354 354 354 355 355 355 355 355 355 355 361 347 350 352 354 352 353 356 354 356 355 355 355
330 325 329 330 330 327 335 335 336 336 335 330 328 324 324 333 327 323 323 318 317 323 328 331 333 334 335 336 338 340 339 339 340 340 340 340 340 341 343 344 346 347 350 348 347 347 349 350 351 352 353 352 352 352 352 353 354 351 351 353 352 352 352 352 352 352 352 353 354 356 356 353 353 353 353 353 353 354 353 353 353 352 352 353 357 349 351 354 354 353 353 354 355 356 356 356 356
320 328 330 332 332 328 335 334 337 336 331 329 327 330 333 330 323 324 324 320 323 330 331 334 335 337 338 339 339 338 338 338 339 339 340 340 340 342 343 344 344 345 348 348 348 348 349 350 351 352 352 351 352 353 353 352 352 352 353 353 352 351 352 351 351 351 352 353 354 356 353 352 352 351 352 352 352 352 352 352 351 351 350 352 356 356 354 355 355 355 354 354 354 355 356 357 357
327 324 330 329 331 329 335 334 338 335 332 330 333 333 327 324 318 324 322 324 329 331 334 335 337 338 339 337 337 337 337 337 338 340 341 341 342 343 344 344 346 348 347 348 347 348 349 350 351 352 351 351 352 352 352 351 352 352 352 354 353 355 352 351 350 351 353 353 355 356 355 351 351 351 351 352 351 352 352 352 351 352 353 353 356 357 356 356 356 356 356 356 356 356 355 356 355
327 325 329 329 332 333 335 336 336 334 333 334 331 326 327 329 324 323 321 326 329 331 334 335 336 336 336 336 336 336 336 337 338 339 341 342 343 345 345 345 346 347 346 347 348 348 349 351 351 350 351 351 351 351 351 351 351 353 353 352 353 356 350 351 352 353 352 355 354 355 356 351 351 351 351 351 351 351 351 353 353 354 355 355 356 356 357 356 356 355 356 355 356 355 355 354 354
332 328 330 328 329 332 335 335 334 334 334 334 327 325 328 330 331 322 322 327 331 332 333 334 334 333 333 334 335 335 335 335 337 338 339 342 344 344 344 344 346 346 346 348 348 348 350 351 350 350 351 351 351 350 349 350 351 352 351 352 354 355 351 352 353 352 352 352 353 353 355 351 351 350 350 350 351 351 351 352 354 354 354 355 356 355 357 356 355 355 355 355 354 354 354 354 357
332 328 330 330 331 332 335 332 331 334 334 335 327 326 326 332 325 314 325 328 332 331 331 333 332 332 333 334 334 335 335 335 336 338 340 341 342 343 343 344 345 346 348 347 348 348 352 351 350 350 350 353 350 349 349 349 352 350 352 353 353 351 353 355 353 352 352 352 353 353 354 357 352 352 351 350 351 352 351 351 352 353 353 354 355 355 357 357 356 354 353 354 355 355 355 356 355
330 330 329 328 330 332 333 331 330 332 329 334 330 325 329 330 324 316 323 329 331 328 329 330 331 331 332 333 333 334 335 336 336 338 338 339 340 342 342 343 344 345 346 347 348 350 351 350 349 349 351 353 351 350 352 350 350 352 353 353 351 352 354 352 352 352 355 353 355 353 352 353 358 352 352 352 353 352 352 352 352 352 352 354 355 355 355 355 357 357 357 358 358 357 356 355 353
330 331 322 325 328 326 330 327 331 335 328 335 332 322 321 323 317 321 325 329 330 328 327 329 330 331 331 332 333 333 334 335 336 337 339 341 342 343 343 345 345 345 347 349 349 351 350 350 349 349 352 353 349 349 350 350 351 354 353 352 353 354 353 352 351 351 352 353 354 355 354 354 360 353 352 355 358 354 352 352 352 355 354 354 355 360 360 354 354 354 353 359 357 359 358 356 357
331 330 326 323 321 321 327 332 332 330 330 335 334 310 313 319 323 324 327 328 329 326 325 327 329 330 331 331 332 333 334 335 335 336 339 341 343 344 343 345 347 346 346 348 349 350 351 351 351 350 352 351 350 350 351 350 352 353 354 353 356 353 352 351 352 351 354 354 356 354 354 356 359 355 353 353 353 353 353 352 352 352 354 356 360 359 355 356 355 354 355 356 359 359 355 355 357
322 325 328 317 316 315 327 329 332 326 332 335 335 311 313 319 323 325 327 328 327 325 325 326 327 328 329 330 331 331 333 334 335 337 339 342 343 345 345 346 347 347 349 348 348 349 351 351 351 350 354 351 352 351 351 350 352 353 352 353 354 352 352 351 352 352 352 353 354 353 355 356 359 356 356 354 352 353 352 352 352 353 355 362 359 360 359 355 353 356 358 357 354 353 354 356 358
325 317 313 315 316 318 324 330 330 323 327 334 331 313 315 319 320 325 327 327 327 324 325 325 326 327 328 329 330 330 331 333 336 337 339 342 344 344 345 345 347 347 347 348 349 349 350 351 353 350 353 351 350 351 350 352 352 351 351 355 352 353 353 352 352 352 353 352 355 353 354 356 358 356 357 355 353 353 352 352 352 355 359 362 359 356 359 355 353 356 357 358 353 354 356 355 355
317 314 312 313 317 317 319 326 332 332 330 331 328 314 318 318 324 326 327 326 326 324 324 324 325 326 327 328 329 329 328 329 334 336 339 341 344 345 345 346 346 347 348 348 348 347 348 350 353 351 352 350 350 351 349 351 350 349 350 354 351 352 352 351 351 352 353 354 353 353 354 356 358 356 356 357 355 353 352 352 352 355 363 361 359 357 353 356 354 353 354 358 355 355 356 353 353
309 312 309 315 315 317 315 326 330 332 330 322 328 320 321 323 324 324 326 326 324 323 323 324 325 325 326 327 327 326 326 328 331 335 338 341 343 345 346 349 347 348 349 349 348 347 346 349 351 351 352 351 349 350 349 350 350 348 349 351 354 350 351 351 351 352 352 353 354 354 354 356 359 356 356 358 357 356 354 353 353 358 362 360 360 356 353 354 355 354 353 354 359 357 356 353 352
309 308 310 313 319 319 318 317 324 329 330 323 324 323 323 324 323 323 325 326 324 322 323 324 324 324 325 325 326 325 325 327 331 335 338 340 342 344 346 347 346 347 349 349 347 347 347 348 350 353 350 350 348 349 349 350 349 347 347 348 350 347 347 348 349 349 351 353 355 356 356 357 359 358 358 362 359 356 357 354 355 359 363 360 359 356 354 357 357 354 352 356 360 358 355 353 354
314 313 313 315 314 315 315 322 329 329 324 321 322 318 319 321 320 322 324 325 323 323 323 323 323 323 323 324 325 324 325 327 332 336 339 340 342 343 345 346 346 346 348 348 347 347 346 347 348 351 349 348 348 348 349 347 347 347 345 346 346 349 347 350 349 349 351 353 357 359 359 359 359 362 361 362 358 359 355 355 357 360 362 360 358 355 354 352 352 351 351 357 358 356 358 357 355
318 316 315 314 314 316 322 323 326 327 325 323 323 324 321 321 321 323 324 324 322 321 321 321 321 321 322 323 324 324 324 326 331 335 338 340 341 343 345 345 344 345 346 347 346 346 347 347 348 348 347 348 347 345 346 345 344 343 342 343 343 344 347 346 348 349 350 353 357 360 362 361 361 363 365 360 358 362 357 357 358 361 362 361 358 356 353 353 355 355 356 357 358 353 353 354 355
317 315 314 312 314 315 322 323 326 328 323 320 324 322 321 321 323 326 328 326 321 320 320 321 321 320 322 323 323 324 325 328 330 333 337 338 340 342 344 343 345 342 344 345 345 346 347 348 347 348 347 346 346 346 346 346 344 343 341 342 343 344 345 348 346 348 349 354 358 359 362 362 361 362 366 359 361 359 356 357 359 359 360 361 360 360 360 365 363 359 359 357 356 355 353 355 356
317 314 313 312 314 322 324 324 325 326 325 318 321 318 320 323 323 327 328 325 324 323 322 322 321 320 320 322 323 324 324 324 327 332 335 337 339 341 342 343 343 344 344 345 345 347 347 347 347 348 346 346 346 347 346 345 346 348 345 344 345 343 346 349 347 350 353 354 357 359 362 360 360 361 365 365 361 359 357 357 358 358 358 360 363 360 357 357 358 359 358 357 355 353 356 359 358
314 314 311 309 316 314 309 320 324 324 320 317 319 316 318 324 327 328 332 331 328 329 328 325 321 320 320 322 324 324 323 323 325 329 332 335 338 340 341 341 342 343 344 344 345 346 347 348 347 347 347 347 346 348 350 346 348 348 348 346 346 347 346 352 351 353 354 356 356 359 360 360 360 361 363 365 363 360 358 357 357 357 357 358 360 358 357 356 357 357 357 362 356 351 351 354 360
314 316 313 312 315 316 315 317 321 322 323 324 320 315 313 318 319 321 326 333 332 330 332 330 331 322 323 323 324 325 324 323 325 329 332 334 337 338 339 341 342 342 343 344 344 345 347 346 347 347 347 347 347 352 350 347 351 347 348 349 351 351 352 350 348 349 352 355 357 357 358 360 360 361 363 364 366 361 360 359 358 358 359 357 361 358 355 354 357 357 357 359 358 352 350 352 354
311 316 316 316 319 316 317 319 319 315 313 319 317 306 308 315 318 319 322 327 327 330 328 327 329 328 324 322 323 324 326 325 327 329 332 334 336 338 339 340 341 342 342 344 345 346 347 347 347 348 348 348 348 349 349 348 351 345 344 344 343 343 343 345 344 344 347 351 355 357 359 360 361 361 362 363 364 363 360 360 360 360 360 361 363 360 357 357 356 357 358 359 359 355 353 349 349
305 309 319 319 320 318 317 317 317 309 307 316 321 305 302 314 315 318 321 324 324 329 328 327 328 328 325 323 323 323 324 324 327 331 333 334 335 337 337 338 340 341 343 345 345 346 347 347 347 348 348 348 349 349 349 351 348 345 345 344 344 343 342 344 348 348 348 351 356 356 358 360 360 360 362 362 363 365 362 360 360 360 361 361 365 363 359 357 357 358 361 359 360 361 353 352 352
303 312 321 321 319 317 316 317 313 311 318 318 319 312 302 302 312 319 321 321 322 324 327 327 328 327 327 325 324 323 324 324 327 330 332 334 335 336 336 338 339 341 343 344 344 345 346 347 347 348 349 350 349 350 348 350 348 345 345 345 346 344 344 345 348 350 352 355 355 356 357 358 360 361 360 360 362 363 364 360 360 361 361 360 362 364 361 359 358 360 364 359 363 361 355 354 353
305 309 323 320 320 319 318 316 312 312 311 307 313 318 305 304 310 319 320 316 318 320 323 326 328 328 328 327 326 324 325 325 327 330 332 333 335 336 337 337 339 341 342 342 343 345 346 347 348 348 348 350 348 350 349 350 350 347 346 345 345 346 346 348 350 355 354 357 354 356 356 357 358 359 360 360 360 362 366 363 361 361 360 358 367 366 364 363 359 359 362 361 359 359 357 353 354
321 325 324 323 320 316 315 313 313 310 307 303 310 315 304 302 309 314 318 316 316 318 321 325 328 329 329 329 328 326 325 325 328 331 333 334 335 336 337 339 339 340 342 344 344 345 346 347 347 347 347 348 348 349 350 349 350 350 346 345 345 345 348 348 349 351 352 354 353 354 355 355 356 357 358 359 360 361 363 365 362 360 361 359 364 364 362 360 359 360 360 359 360 359 357 361 362
324 320 316 313 313 313 313 311 309 305 301 304 312 315 308 298 307 313 312 314 318 320 321 324 327 330 331 330 330 328 325 325 327 330 333 334 336 337 338 337 338 340 341 342 343 344 346 346 347 346 347 348 349 348 349 348 349 349 347 346 346 345 346 347 346 348 350 351 351 352 353 354 354 355 357 360 359 360 361 364 363 361 361 364 366 364 361 359 359 359 360 360 362 359 357 358 361
321 314 312 311 308 310 306 303 305 296 293 298 311 313 313 299 303 312 319 321 322 321 320 322 325 328 330 330 331 330 326 326 327 330 332 334 335 336 337 337 338 339 340 341 342 344 345 346 346 346 346 347 348 347 348 348 348 349 348 348 347 347 347 347 346 346 349 350 351 351 352 353 353 354 356 358 359 359 361 363 366 364 364 363 361 362 361 359 360 360 360 360 360 360 358 363 357
317 315 312 304 296 299 295 295 296 293 293 304 309 314 309 306 309 314 318 321 323 323 323 323 324 327 330 331 332 332 326 326 328 329 331 332 333 335 336 337 337 338 339 341 341 343 345 345 346 345 345 347 347 347 348 348 348 348 348 348 348 349 348 348 348 347 349 350 351 351 351 351 352 352 354 356 358 359 361 360 360 362 362 363 364 362 361 360 360 360 360 360 359 359 360 361 358
314 310 304 299 292 287 284 288 292 292 297 306 309 315 307 310 313 319 319 321 324 325 326 326 325 326 329 331 332 333 328 326 328 330 331 332 334 335 336 337 337 338 340 340 341 344 345 345 346 345 345 346 347 347 347 347 348 349 349 349 349 351 349 349 349 348 349 350 351 351 351 352 352 352 353 355 358 360 361 361 362 361 361 361 363 363 362 361 362 360 360 361 361 360 361 362 360
314 314 308 303 298 293 287 288 291 293 296 306 313 306 300 302 305 318 320 322 323 326 327 327 326 327 329 333 333 333 329 326 328 330 331 332 334 336 337 337 338 338 340 341 341 343 344 344 345 346 345 345 346 346 347 347 348 349 350 350 350 350 350 350 350 350 350 350 351 351 351 353 353 353 354 356 360 360 361 361 360 360 360 360 362 363 363 364 365 364 366 360 361 359 361 361 361
305 303 307 304 300 301 293 295 295 299 304 303 304 301 302 306 314 324 326 327 326 326 326 325 324 325 328 331 331 332 330 327 328 330 331 333 334 336 337 338 338 339 340 341 342 343 344 344 345 345 345 345 346 347 347 347 348 349 349 350 350 351 354 351 351 354 352 351 351 351 351 352 354 354 355 357 358 360 359 359 361 361 360 360 361 363 362 363 363 362 361 363 362 365 362 361 361
304 307 302 303 308 303 299 302 301 304 300 299 305 305 307 310 313 319 324 324 324 326 325 324 324 325 327 329 331 332 331 328 328 330 331 333 334 336 338 339 339 340 340 341 342 343 344 345 344 345 345 346 345 347 347 348 348 348 349 349 350 349 351 350 349 350 351 352 352 352 352 352 354 355 355 358 358 359 359 359 359 359 360 361 362 363 363 363 362 363 362 361 361 360 364 362 360
303 300 305 302 303 301 296 293 290 290 292 291 302 301 300 301 299 319 322 323 323 323 325 325 325 325 325 327 330 332 332 330 329 330 332 333 335 336 338 339 340 340 341 341 343 344 345 345 345 344 345 345 345 346 347 347 347 348 348 349 350 350 350 351 350 350 351 352 352 353 353 353 353 355 356 357 359 358 358 362 359 359 360 361 362 363 363 363 362 362 362 362 361 361 361 361 361
309 308 310 298 295 296 293 297 288 289 288 287 293 298 299 301 306 318 319 320 322 323 323 325 324 325 325 327 328 331 333 332 329 329 331 332 334 336 338 339 340 341 343 343 344 345 345 345 346 345 345 346 346 346 347 348 348 348 348 349 349 350 350 351 351 351 351 352 352 353 353 354 355 357 358 358 358 357 357 357 359 358 359 361 362 362 363 363 362 362 362 361 361 361 360 359 359
297 299 297 297 294 290 292 294 294 293 287 289 287 293 297 312 314 319 319 322 323 324 322 323 325 326 326 326 327 329 331 331 330 330 330 332 334 336 338 339 340 341 342 343 344 346 345 346 347 346 346 347 347 347 348 347 348 348 348 350 350 350 351 351 352 351 350 351 352 353 354 354 356 358 358 358 358 358 358 356 356 357 357 359 360 361 362 362 361 361 361 361 361 361 360 360 360
291 292 292 295 294 295 294 294 292 291 288 287 286 288 298 312 321 321 322 324 325 324 323 323 326 327 328 328 328 329 331 331 331 331 331 332 333 335 338 340 341 342 344 345 345 346 346 346 346 347 346 346 346 347 347 348 349 348 349 348 349 349 350 352 352 352 351 351 352 355 354 355 357 357 359 358 358 359 359 357 356 358 357 358 360 360 361 362 361 360 360 360 360 360 360 360 360
294 291 291 290 289 291 289 287 289 294 291 285 287 287 296 315 323 323 324 326 326 327 324 324 326 329 331 331 331 331 332 332 332 332 332 333 334 336 338 340 341 341 344 344 345 347 347 347 347 347 347 347 347 347 347 348 349 349 348 348 349 349 350 352 352 352 352 352 352 354 355 356 355 356 358 357 358 358 359 358 357 357 358 358 359 360 360 360 360 359 359 358 358 358 358 359 359
Wind_Speed
7 6 4 2 1 2 1 1 0 1 4 2 1 2 1 1 2 3 4 4 4 1 0 5 6 4 2 2 3 3 0 5 4 4 3 1 2 6 4 3 6 5 4 2 1 0 0 3 5 5 5 5 4 4 4 5 7 7 8 9 10 10 11 11 11 11 12 12 12 13 13 13 13 13 13 12 13 13 12 14 15 14 14 12 12 12 13 13 12 12 11 11 14 15 15 14 14
4 6 4 2 2 1 1 0 1 3 4 4 1 1 0 1 4 6 8 6 3 4 3 7 3 5 5 9 8 3 4 4 0 2 2 2 6 3 4 6 7 7 4 3 3 2 2 4 7 5 5 5 6 5 5 4 7 7 8 8 9 10 10 11 11 12 12 12 13 12 12 13 13 13 13 13 12 13 13 13 13 13 14 13 12 10 12 12 11 10 10 12 14 14 14 14 13
5 5 2 1 2 1 1 1 1 2 6 3 1 1 1 3 4 6 6 3 5 9 6 6 5 3 1 2 2 2 1 3 4 3 4 8 10 4 6 6 6 6 5 3 4 2 1 2 4 4 4 5 7 6 6 7 6 7 7 8 8 9 10 11 11 12 13 13 11 12 13 13 12 12 13 13 12 13 12 13 11 12 12 13 12 11 12 12 11 6 10 12 13 14 14 14 13
4 1 3 1 0 1 1 1 3 4 6 4 2 1 3 5 3 2 2 0 8 11 6 4 3 1 1 6 1 2 3 1 1 7 6 6 1 9 8 8 7 5 4 3 2 1 1 1 3 3 3 4 7 7 5 7 7 6 7 7 8 8 10 11 10 11 13 12 11 11 12 13 12 12 13 14 11 11 11 12 12 12 12 11 11 12 11 9 11 10 12 13 13 13 14 13 13
3 1 0 1 1 1 1 1 3 1 6 4 6 2 2 1 5 4 2 3 5 8 6 3 3 3 2 4 0 1 1 3 3 2 3 2 6 9 9 8 7 6 6 5 2 1 0 4 4 4 5 5 7 5 6 7 6 6 10 7 8 6 4 8 9 11 12 12 10 10 11 11 11 12 14 14 11 11 10 11 11 12 12 12 10 11 12 11 10 11 13 13 13 13 13 12 11
4 2 1 1 1 1 1 2 3 3 1 3 4 3 1 2 7 6 5 3 4 5 4 3 2 2 3 4 1 2 2 2 2 2 4 4 10 10 10 9 8 7 6 3 2 1 1 4 5 6 6 6 6 6 5 5 5 6 13 4 7 6 4 7 8 10 11 11 11 9 9 8 12 12 15 14 10 10 11 11 12 14 11 12 10 10 8 6 11 14 13 13 12 12 12 11 11
1 1 0 0 0 0 3 4 3 2 1 2 3 4 5 4 5 10 7 6 3 6 2 3 7 6 5 1 3 1 1 3 3 2 3 9 10 10 9 8 7 6 4 3 2 1 1 4 5 5 5 5 5 5 5 5 7 9 9 6 4 6 5 8 7 10 9 9 12 10 6 7 11 13 14 15 11 11 10 11 11 13 14 12 13 10 10 9 13 13 12 12 12 12 11 11 11
1 0 0 1 0 0 4 2 2 1 0 1 0 8 4 6 5 5 5 5 4 2 3 4 2 4 1 2 3 3 4 3 7 9 11 9 10 9 9 8 8 6 5 3 2 2 2 3 1 3 3 4 5 4 6 9 5 8 12 5 2 3 5 7 11 7 8 7 12 9 6 8 8 11 13 13 10 11 11 10 11 12 12 12 12 12 10 11 12 12 12 11 11 11 10 10 10
2 2 1 1 2 1 3 2 1 0 1 1 3 1 4 4 3 7 5 2 4 4 3 4 2 4 1 4 3 1 3 7 10 11 10 10 9 8 6 7 7 6 5 4 3 4 4 4 4 3 2 3 5 6 8 7 6 7 13 9 6 7 5 7 11 11 9 9 11 12 7 8 8 9 10 12 12 12 11 11 11 11 11 10 10 11 11 11 11 11 11 10 10 10 11 9 9
1 0 1 1 1 6 3 1 4 1 2 1 5 6 5 3 2 3 9 6 3 4 3 5 4 5 4 6 1 2 3 8 10 10 8 8 9 8 8 7 7 8 6 4 3 4 4 3 3 4 4 7 7 5 7 8 8 7 14 10 6 8 7 8 11 12 8 11 10 12 8 7 10 10 10 11 11 11 11 11 12 11 11 10 10 10 11 11 11 10 10 10 10 10 10 10 9
1 2 0 2 3 5 4 2 2 2 2 1 3 2 2 2 6 5 3 5 2 3 5 9 8 7 3 2 2 1 6 8 9 9 8 8 8 8 7 7 7 7 7 6 4 5 4 2 4 5 6 6 8 6 5 6 9 8 11 9 10 9 9 9 11 12 11 13 11 11 11 9 9 10 10 10 11 10 10 11 11 11 11 10 10 10 10 11 11 10 10 10 10 9 9 9 9
2 3 2 4 2 3 2 5 3 2 3 4 3 1 1 6 5 6 6 9 4 6 4 1 4 3 5 1 1 3 5 5 7 8 8 8 7 8 8 6 7 7 7 6 6 6 5 3 3 4 6 5 5 5 7 5 8 10 9 10 10 10 10 10 12 9 8 12 12 11 10 7 8 10 10 10 10 11 10 11 11 10 10 9 9 9 10 10 10 10 9 9 9 9 9 8 8
2 0 1 4 1 2 2 5 2 4 4 2 5 1 4 5 7 9 5 6 5 7 1 2 11 2 4 1 1 4 5 5 7 8 8 7 7 7 7 7 8 8 7 6 7 5 6 4 3 2 4 7 4 4 5 6 7 8 9 9 9 9 10 13 14 12 9 10 10 12 10 9 10 10 10 10 10 10 10 9 10 10 10 9 9 9 9 9 9 9 8 8 7 8 9 9 7
2 1 1 2 1 1 3 3 1 7 2 1 0 4 3 2 3 8 11 8 2 1 1 10 3 7 5 5 2 4 4 7 9 8 7 8 7 7 9 7 8 7 7 6 5 4 5 3 2 5 6 4 4 3 4 7 6 7 8 8 9 9 9 13 13 14 9 9 10 11 11 9 9 10 10 10 11 11 9 9 10 10 8 8 8 9 9 9 9 9 8 8 8 8 7 7 5
1 1 2 2 1 1 1 6 7 6 3 1 2 6 2 3 3 4 10 12 3 3 5 3 4 3 4 7 5 6 6 10 9 9 8 8 8 8 9 7 8 8 6 6 4 5 5 4 3 4 5 4 3 3 4 2 5 5 6 6 5 6 8 12 14 15 12 9 10 10 11 10 8 9 9 9 11 11 10 9 8 8 8 9 8 8 9 9 9 8 8 8 8 7 6 4 5
1 1 2 2 2 3 2 2 1 5 3 2 3 6 8 3 3 4 1 1 4 4 4 3 1 1 4 2 4 7 11 10 9 9 9 9 8 8 8 7 7 7 5 5 4 5 5 5 5 5 5 5 2 3 4 4 2 4 5 5 5 4 5 10 11 14 13 11 11 8 11 6 6 4 10 8 9 9 9 7 8 7 8 8 8 9 9 8 8 8 7 7 7 6 6 5 4
0 1 3 2 4 1 1 1 2 2 2 2 4 7 4 3 0 2 3 5 10 3 4 3 1 1 9 2 10 11 11 11 10 10 9 7 6 5 5 6 6 5 4 4 3 4 5 4 5 5 6 5 4 2 3 4 0 4 3 6 4 5 6 10 13 14 13 10 7 8 9 6 4 3 4 1 8 4 6 8 8 7 7 8 8 8 8 8 7 8 8 7 7 5 5 5 4
1 2 2 1 1 1 1 2 1 2 3 4 6 4 13 6 2 2 7 7 5 5 7 4 10 7 7 8 11 11 11 11 10 10 7 7 5 6 5 5 5 5 4 3 4 4 4 5 6 7 6 5 4 2 2 2 2 4 2 3 5 4 5 8 8 8 11 4 10 5 5 5 3 2 2 2 1 2 5 7 7 7 7 7 7 7 7 7 7 7 7 7 6 8 7 3 3
2 1 1 2 4 3 1 1 2 1 4 2 3 6 11 6 8 2 5 3 5 8 5 7 9 8 10 10 11 11 11 10 9 9 9 8 6 8 6 5 5 6 5 4 3 4 4 4 6 7 6 6 4 2 3 4 2 3 5 5 5 6 5 6 5 9 7 6 5 4 4 4 3 1 3 2 2 5 4 6 6 6 7 7 6 7 6 7 7 7 7 7 8 8 4 3 3
1 2 1 4 2 1 1 1 0 1 0 5 8 3 7 6 4 2 5 7 5 9 10 5 8 10 10 10 10 10 10 9 8 8 8 7 6 6 7 7 6 5 5 3 3 3 4 4 5 6 7 7 5 3 3 3 2 4 5 5 5 3 3 4 5 6 7 8 5 4 3 3 4 1 3 5 4 4 3 5 6 7 7 7 7 6 7 7 8 8 8 8 4 3 2 2 2
1 1 3 1 0 2 2 4 1 2 2 5 5 4 6 2 2 4 9 9 1 3 4 13 14 13 12 11 11 9 9 9 7 7 7 6 5 4 4 5 5 5 4 4 3 3 4 5 5 6 6 6 6 5 4 3 3 4 5 4 5 4 4 4 4 5 5 6 5 4 4 4 4 3 4 4 3 4 4 4 5 5 4 5 6 3 2 3 4 4 4 4 3 3 2 2 2
2 1 0 0 4 1 2 5 0 0 3 6 6 10 5 1 3 8 12 10 8 10 9 6 14 15 15 13 11 9 9 9 8 7 7 8 8 6 5 5 5 5 5 4 3 3 4 5 5 5 6 6 6 5 5 5 5 3 4 5 5 4 4 4 4 4 4 5 4 4 4 5 4 4 4 4 4 4 4 4 4 4 4 3 3 3 2 3 3 3 3 3 3 2 2 2 2
1 0 2 0 1 1 0 5 2 1 4 5 4 1 2 2 4 5 5 2 2 4 7 10 11 12 13 12 11 10 9 9 9 8 8 8 7 6 6 5 6 6 4 4 4 3 4 5 6 6 5 6 6 5 5 5 4 3 3 4 5 4 4 4 4 4 4 5 5 4 5 4 4 3 3 4 3 3 3 2 3 2 2 2 2 3 3 3 3 3 3 4 3 3 3 3 3
1 1 3 2 2 6 2 3 3 0 6 3 2 4 6 4 6 3 2 1 5 5 10 10 10 10 11 12 11 11 10 10 9 8 8 9 9 8 7 6 5 5 5 5 4 4 4 5 6 6 6 5 4 5 6 5 5 5 5 5 4 5 4 4 4 4 4 4 4 4 4 4 4 3 3 3 2 3 2 2 2 2 2 2 2 2 3 3 4 3 3 4 3 3 3 3 2
2 2 2 1 3 6 5 4 6 6 5 2 4 6 0 2 3 4 4 2 7 10 11 12 11 11 9 10 10 10 9 7 8 7 5 3 5 6 6 5 6 6 6 6 5 4 5 5 5 6 6 6 4 5 6 5 5 5 5 4 4 5 4 4 4 4 4 4 4 4 4 4 3 3 3 2 2 2 2 2 2 2 3 3 3 3 2 3 4 3 4 4 4 5 4 5 4
2 3 2 1 2 7 8 7 7 5 3 1 7 2 1 2 4 2 1 4 7 11 11 12 12 11 10 10 9 9 9 8 7 8 7 6 6 7 6 5 6 6 6 6 6 5 5 5 6 7 7 5 5 5 4 5 4 5 4 4 4 4 4 4 4 4 3 4 4 4 4 4 3 3 3 2 2 2 3 3 3 3 3 3 3 4 3 3 4 4 4 4 3 4 4 4 4
6 6 4 4 7 5 6 5 7 2 4 4 6 2 1 2 4 2 1 4 11 11 11 10 12 11 10 9 8 8 9 8 9 7 6 6 6 6 7 6 6 5 6 6 6 5 5 6 5 6 6 6 5 5 4 4 4 4 4 3 4 4 4 4 3 3 3 3 3 4 4 3 3 3 3 2 2 2 3 3 3 3 3 3 3 3 3 3 3 3 4 4 4 4 4 3 3
6 7 10 8 10 7 8 9 5 4 3 6 4 3 4 2 1 4 7 6 13 14 12 11 10 10 9 8 8 6 6 6 6 8 9 9 7 7 7 7 7 6 7 6 5 5 6 6 6 6 6 5 5 5 5 4 4 4 4 4 4 4 4 3 3 3 3 3 3 3 2 2 2 2 2 2 2 3 3 3 3 3 3 3 2 3 4 3 3 3 3 3 3 3 3 3 3
4 1 4 5 8 6 8 4 2 1 3 5 6 10 4 1 3 2 7 8 12 12 12 12 10 9 8 8 7 5 6 5 7 7 8 7 6 6 8 7 8 7 4 6 6 6 7 6 6 6 6 5 6 6 4 4 3 3 4 4 3 4 3 3 3 3 2 2 2 2 1 1 1 1 2 2 2 3 3 3 3 3 3 3 2 2 2 2 2 3 3 2 3 3 4 4 3
2 3 4 7 6 5 5 5 3 4 2 4 1 6 4 2 1 4 5 10 10 9 9 9 9 9 8 8 7 6 5 5 8 7 6 6 7 7 7 7 7 6 6 5 7 7 5 4 4 4 5 6 6 5 4 4 4 4 3 3 3 4 3 3 3 2 2 2 1 1 1 1 0 1 1 1 1 2 3 3 3 4 3 3 2 1 2 2 3 3 3 3 3 3 4 4 3
2 2 1 3 6 2 1 1 2 6 2 4 2 3 4 1 1 3 4 10 15 12 9 8 8 8 8 8 7 6 6 6 8 8 7 7 7 6 7 7 7 7 6 6 7 7 6 5 5 5 5 6 6 5 5 4 4 4 4 3 3 3 3 3 3 3 3 2 1 1 1 1 0 0 1 1 2 2 3 3 4 3 3 2 1 2 2 2 2 3 2 3 3 2 3 3 2
2 1 2 3 2 3 1 1 3 5 0 3 1 1 4 2 3 4 5 8 11 13 11 9 9 8 8 7 7 7 7 6 5 7 8 8 8 7 8 8 8 8 8 8 7 7 6 6 5 5 6 6 5 5 5 4 5 4 4 4 3 4 3 3 3 3 3 3 2 2 1 1 1 2 2 1 2 2 3 3 4 3 3 1 2 2 2 3 3 3 1 2 4 4 4 3 1
2 1 1 1 3 5 4 2 2 2 4 3 2 2 2 2 3 4 4 9 9 11 10 9 9 9 9 8 7 6 5 5 5 6 8 8 8 8 8 8 8 8 8 8 8 7 6 6 6 6 7 7 6 6 6 5 5 5 5 4 4 4 4 3 3 3 3 3 2 2 2 2 2 3 3 2 3 3 3 3 3 3 2 1 2 2 2 2 3 3 4 2 0 3 4 4 4
1 2 2 2 3 4 3 1 0 4 3 3 1 2 1 0 7 6 5 8 7 9 9 9 8 8 8 8 7 6 6 6 8 7 9 9 8 9 8 8 8 8 7 8 8 8 8 7 6 6 6 5 5 5 5 5 4 4 4 4 3 3 3 2 2 2 3 3 3 3 3 3 3 4 4 3 3 3 3 3 3 2 0 1 1 2 3 2 1 2 4 2 2 3 3 4 4
5 2 4 2 2 0 3 5 3 7 2 4 2 2 1 1 8 8 7 7 8 10 11 11 10 8 8 7 7 6 7 8 10 9 10 9 9 9 8 8 8 8 7 8 8 7 6 6 5 6 6 5 5 5 4 4 4 4 4 3 3 3 1 1 2 2 2 2 3 3 3 4 4 4 4 3 3 3 3 3 3 2 1 0 1 2 3 3 2 2 3 5 3 3 3 2 3
7 5 4 5 8 2 4 1 3 2 5 4 4 4 3 3 8 7 7 8 9 9 5 5 5 5 5 6 7 6 7 9 7 8 9 9 8 9 9 8 8 7 7 7 7 7 6 6 5 5 6 6 5 4 4 4 4 4 4 3 2 1 2 1 1 2 1 2 3 3 4 4 4 3 3 2 3 3 3 3 3 0 0 0 2 3 4 3 4 5 5 3 6 4 1 1 2
8 5 4 5 4 3 2 4 6 3 0 2 3 2 3 4 8 8 7 5 5 4 6 6 6 6 7 7 7 7 8 10 8 9 10 11 10 9 8 8 8 8 7 8 8 7 7 7 7 7 6 6 6 5 5 5 4 3 2 3 3 3 3 2 2 2 2 3 2 2 3 3 3 2 1 2 3 3 3 2 2 0 0 1 1 3 3 3 2 2 2 2 3 3 2 2 2
7 6 6 4 1 3 1 3 7 1 1 1 3 3 2 2 2 3 3 6 10 8 7 8 8 7 8 9 9 9 8 3 5 5 7 7 7 9 8 8 9 10 9 9 9 8 7 7 7 6 6 6 6 6 5 5 3 4 4 4 3 3 3 3 4 3 4 2 3 3 3 3 3 2 1 2 2 3 3 3 2 2 1 2 2 2 3 3 3 2 1 2 1 1 2 2 3
4 5 5 5 1 4 5 3 3 1 1 1 2 4 3 2 1 0 2 6 4 7 8 9 10 9 7 8 9 8 5 6 8 9 10 9 10 10 9 9 9 10 10 11 9 8 7 7 6 5 6 7 6 6 5 4 3 3 3 3 4 2 2 3 3 1 1 2 2 3 3 2 3 2 2 3 3 3 3 3 3 2 1 1 2 3 2 4 2 3 1 1 3 1 2 2 2
6 6 5 6 6 5 3 2 2 4 3 2 1 5 1 1 2 3 2 2 1 2 5 6 7 9 10 11 11 9 8 8 10 10 11 10 11 10 8 9 9 8 8 8 9 9 7 7 6 6 6 6 6 6 6 5 5 4 3 4 4 3 2 2 2 1 1 1 3 3 3 3 3 3 3 3 2 2 3 4 2 2 2 1 1 2 4 4 3 3 2 1 1 3 2 3 4
1 6 4 5 8 5 2 6 4 1 4 2 5 3 2 3 3 4 4 2 2 2 2 4 4 7 9 7 5 8 11 10 10 10 10 10 10 11 12 10 9 10 10 10 10 9 7 9 8 7 7 6 6 6 6 5 4 3 2 2 2 1 2 2 2 2 2 3 2 3 4 3 3 3 2 2 2 3 2 2 2 2 2 1 1 2 3 3 3 3 2 1 1 1 3 2 2
1 5 8 10 11 7 9 9 8 2 0 2 6 1 5 4 8 9 5 2 5 3 5 7 7 7 6 7 10 8 7 9 11 12 13 13 14 11 9 9 10 9 10 11 11 11 10 8 8 7 6 6 6 6 6 6 6 6 4 4 4 4 4 3 5 6 5 4 5 3 2 3 3 3 2 2 2 2 3 3 2 2 2 2 2 2 2 3 4 4 2 2 0 1 0 2 2
0 5 8 7 10 9 11 12 7 6 7 5 3 6 3 2 10 11 8 7 10 4 7 8 7 7 8 10 10 9 10 8 7 9 10 11 11 11 11 11 11 11 11 10 9 9 10 10 9 8 7 6 6 6 6 6 6 6 7 7 6 6 6 5 4 4 5 5 4 4 4 3 3 3 3 3 3 2 3 3 3 2 2 2 2 2 3 3 3 3 2 1 1 1 0 2 1
5 3 11 10 10 12 12 11 4 2 3 3 2 1 1 3 9 11 10 9 10 10 9 8 7 8 9 10 10 10 10 10 10 11 12 13 13 14 15 14 12 13 11 10 9 8 9 10 9 8 7 7 6 6 7 7 7 6 7 6 6 6 7 7 6 5 5 3 4 5 4 4 4 4 4 4 3 3 3 3 3 3 3 2 2 3 3 3 2 1 0 1 1 1 1 2 2
3 2 12 13 10 7 7 5 4 2 4 0 4 3 1 4 5 5 11 10 12 15 13 11 9 9 9 10 11 11 11 11 12 11 12 12 13 13 12 13 13 10 10 11 11 10 9 9 9 8 8 7 6 7 7 7 6 7 7 6 6 5 6 6 4 4 4 4 5 4 4 4 4 4 4 4 4 4 3 4 4 4 3 3 3 2 2 2 3 2 1 1 1 1 1 1 1
2 14 12 11 12 13 10 6 5 3 4 3 6 7 3 6 3 2 8 12 14 17 16 13 11 10 11 10 10 11 9 9 10 12 13 13 14 13 14 12 11 11 11 10 10 8 8 8 9 9 9 7 7 7 7 7 7 6 6 6 7 6 4 3 3 5 5 5 6 5 5 4 4 4 4 4 4 4 4 4 4 4 4 3 2 2 2 2 3 2 2 2 1 1 1 1 2
10 17 15 11 12 7 4 5 2 2 1 3 6 9 3 3 5 9 10 13 20 16 9 9 8 9 10 10 10 10 10 10 10 10 11 12 13 13 11 12 12 10 8 9 9 9 9 9 10 10 10 8 7 8 8 8 6 6 7 7 8 7 6 6 5 5 4 4 5 5 5 5 4 5 4 4 4 4 4 4 4 4 3 2 2 2 3 3 2 2 2 2 2 2 0 1 1
12 3 8 10 7 6 5 3 3 1 4 4 6 13 8 4 6 5 13 10 12 14 16 17 16 14 11 10 9 10 11 11 11 10 10 10 7 7 9 9 10 10 9 10 9 9 9 10 10 11 9 9 8 8 8 8 7 6 6 7 8 7 7 6 7 7 7 7 7 6 5 4 4 4 4 4 4 4 4 4 4 3 3 2 3 2 2 2 2 1 2 2 2 2 1 1 1
7 9 7 8 1 3 1 2 1 3 5 0 2 8 3 12 13 0 3 10 7 8 11 17 19 15 12 11 11 9 9 10 11 11 10 9 10 10 11 10 8 9 10 12 12 11 10 10 11 12 11 9 9 8 9 8 8 7 7 6 6 6 6 7 7 7 7 7 6 6 5 6 5 4 4 5 5 5 4 4 4 4 4 3 3 3 3 3 2 2 2 3 2 3 3 2 2
9 10 7 7 4 1 2 3 1 3 3 1 5 9 5 2 7 9 15 13 12 9 12 13 16 17 15 12 10 9 9 11 12 11 11 11 11 11 12 11 11 11 11 12 11 11 10 10 11 12 12 11 9 8 9 8 8 8 7 6 6 6 6 7 6 6 6 6 6 7 6 6 6 6 6 6 6 5 4 5 5 5 4 4 3 4 3 3 3 2 2 3 3 3 2 2 2
11 5 10 9 8 6 4 3 5 4 2 3 5 6 5 4 3 5 6 7 6 10 11 10 12 13 13 11 10 8 8 9 10 11 12 12 12 12 11 11 11 11 12 11 10 10 10 10 11 12 11 10 10 10 9 9 8 8 7 6 6 6 6 6 6 6 6 6 6 6 6 5 6 6 6 6 5 5 5 5 5 5 5 5 4 4 3 3 3 2 2 2 2 2 2 1 2
1 1 4 5 6 5 4 5 4 3 4 4 2 5 3 4 1 3 4 5 5 4 8 8 9 10 11 11 11 10 9 9 10 11 12 12 12 12 11 11 11 11 11 10 11 10 10 10 11 12 13 12 11 10 10 10 9 7 7 7 7 6 5 5 5 5 5 6 6 6 6 6 6 6 5 4 5 5 5 5 4 5 5 4 4 4 4 3 4 3 3 2 3 2 2 3 2
6 3 3 4 1 8 6 2 2 4 3 3 2 6 4 7 2 7 7 9 10 2 5 8 8 10 12 12 12 12 11 11 11 11 11 12 11 11 11 12 11 10 10 11 11 12 13 11 11 11 11 10 11 11 11 10 9 8 9 8 7 7 7 7 7 7 7 6 6 6 5 6 5 5 5 4 5 5 5 5 5 5 5 5 4 4 4 4 4 4 3 4 4 2 2 3 2
7 3 7 1 2 5 5 3 1 3 2 2 2 4 4 4 2 9 13 13 10 8 0 4 6 8 12 12 12 12 11 11 12 12 12 13 13 13 12 11 12 13 13 13 12 12 11 11 12 13 11 12 12 11 11 10 10 10 9 9 8 8 8 7 6 7 6 5 5 5 4 4 6 5 5 4 5 5 5 5 5 5 5 5 5 4 4 5 4 4 4 4 3 3 3 2 2
8 8 4 5 1 1 2 5 1 1 1 2 2 2 3 1 4 9 13 13 12 11 5 2 6 8 10 9 10 10 10 9 9 10 10 10 11 12 13 13 12 12 12 13 13 12 10 10 10 12 13 14 13 10 9 8 9 8 8 9 9 8 7 6 6 6 5 6 6 5 5 6 4 5 5 5 5 5 5 5 5 5 4 5 5 5 5 5 5 4 4 4 3 3 3 3 3
3 3 4 1 3 3 4 5 4 5 2 2 3 2 1 1 4 9 11 13 12 10 7 5 6 8 8 8 8 8 9 9 9 10 10 11 12 13 13 13 12 12 11 10 11 9 11 11 11 11 11 9 9 9 9 9 9 8 8 7 7 7 7 7 7 6 6 6 6 6 6 5 6 5 5 5 5 5 5 5 4 5 5 4 5 5 5 5 4 4 4 3 3 3 3 4 3
5 4 1 1 1 2 5 1 2 3 5 4 2 2 0 2 5 8 10 11 11 10 8 5 4 5 6 7 7 6 7 6 7 8 9 10 10 10 9 9 8 7 7 8 9 10 11 10 11 11 11 10 10 10 9 9 8 8 8 9 8 8 8 6 6 6 6 6 6 6 6 6 4 5 5 5 5 6 5 5 5 5 5 5 6 5 5 4 4 5 4 4 4 4 4 4 3
4 5 3 3 4 3 2 4 2 2 2 3 3 4 1 2 5 6 8 9 9 10 5 2 1 0 1 1 2 5 6 4 5 6 8 8 7 8 8 7 7 7 7 9 9 8 8 9 10 10 9 9 10 10 9 9 8 8 10 9 8 7 7 6 7 6 6 6 6 6 6 5 6 6 5 5 6 5 5 6 5 6 6 5 5 6 5 4 5 5 5 3 4 4 5 5 3
Wind_Direction
88 83 69 58 119 117 142 12 72 345 60 58 17 25 227 83 172 62 93 110 124 259 355 112 135 147 178 200 169 140 341 128 198 129 204 228 137 153 172 173 126 113 113 91 95 60 100 212 203 200 143 133 120 89 100 111 107 107 108 108 108 109 111 112 112 113 118 117 115 116 117 116 115 111 109 108 105 105 105 107 106 108 110 107 100 101 104 100 98 100 99 88 89 90 90 88 86
112 105 116 171 132 103 359 69 102 21 53 83 36 94 286 356 79 141 159 159 180 143 122 110 96 64 46 116 130 140 37 37 37 121 83 111 115 121 177 143 131 129 121 129 137 175 193 202 207 164 147 140 116 132 117 125 115 109 111 113 112 113 114 117 118 121 122 120 113 119 120 119 117 112 109 108 109 106 106 103 105 111 113 110 105 100 97 96 98 92 103 102 91 90 87 89 87
127 120 131 160 87 181 150 52 114 103 105 97 291 212 314 111 160 190 166 158 136 110 115 101 110 66 52 358 51 20 233 44 72 80 112 145 132 161 144 132 122 118 128 132 140 158 169 200 171 148 144 139 133 136 145 122 115 119 118 119 118 120 117 120 123 125 125 114 120 125 121 121 117 113 110 109 108 102 105 111 116 108 104 105 106 109 108 101 91 110 112 98 93 89 88 84 81
115 159 123 124 4 31 57 34 84 123 111 181 87 330 160 172 179 92 32 170 125 121 126 129 99 263 101 49 111 78 58 10 40 132 134 171 211 142 134 128 125 116 118 127 107 76 36 114 146 132 136 140 145 139 132 123 128 124 124 123 123 118 121 118 121 126 118 120 126 120 119 119 118 115 112 102 101 106 108 112 114 111 109 106 102 102 96 113 136 134 104 93 91 88 85 84 87
96 88 95 95 115 339 102 131 133 92 122 189 152 259 209 187 112 97 58 114 118 128 121 122 76 12 127 117 91 107 223 93 101 201 108 91 115 135 128 124 120 126 134 135 96 94 72 157 149 145 136 167 134 166 146 132 133 130 91 49 64 62 45 100 113 110 112 120 115 115 114 115 117 116 111 112 114 111 115 113 110 104 105 105 105 110 120 138 125 109 93 92 90 86 87 90 90
86 117 40 60 99 220 30 50 57 64 211 152 130 188 124 144 124 112 106 85 98 92 116 78 138 140 26 352 32 85 144 117 184 89 126 124 126 129 128 121 120 129 129 97 111 89 337 175 164 154 161 156 151 132 146 136 138 102 86 97 109 95 127 107 115 110 118 123 119 103 93 114 119 116 113 116 121 119 114 116 116 113 111 109 115 109 103 128 116 93 93 89 86 86 86 91 98
98 83 14 144 87 114 116 111 116 136 335 155 153 130 151 148 140 117 119 92 5 61 55 94 107 110 87 153 49 69 313 142 103 130 100 126 121 124 122 112 111 118 112 105 86 79 353 175 160 156 156 157 149 144 149 137 87 79 108 97 119 134 138 123 118 114 109 105 105 96 117 115 113 117 118 122 130 118 113 113 116 120 122 125 122 127 137 121 93 90 88 89 92 88 84 88 95
90 121 269 100 29 68 55 103 77 181 66 113 79 129 171 151 154 110 125 114 161 98 91 127 79 94 291 8 128 341 27 50 95 95 111 117 120 118 112 115 113 113 104 86 60 50 117 88 110 153 164 153 137 136 66 49 92 102 80 29 170 149 145 120 122 111 102 106 105 110 108 114 111 117 118 116 120 120 120 117 114 111 109 116 123 125 115 96 89 87 87 89 87 92 92 86 86
4 80 270 69 42 47 67 58 56 351 95 29 62 73 137 148 148 123 83 92 94 80 85 116 137 81 277 34 38 12 54 81 92 108 112 118 117 115 114 114 118 112 99 82 68 72 76 124 122 267 140 107 82 82 109 151 117 104 102 198 201 165 170 144 125 129 155 133 111 124 142 135 130 116 116 116 120 118 118 114 113 112 111 109 110 107 99 91 88 88 91 91 90 89 90 92 87
15 14 346 108 138 97 97 19 87 128 124 339 134 153 156 178 91 82 125 87 118 89 44 60 77 108 117 83 72 9 92 104 106 102 112 114 114 112 111 113 115 111 97 86 69 86 97 129 140 145 110 92 77 82 118 125 125 119 148 196 174 167 174 156 132 129 144 124 122 130 139 143 127 129 118 115 113 114 115 114 113 113 110 113 108 105 100 97 92 86 83 80 84 91 89 83 78
7 14 164 61 67 108 122 139 87 73 79 92 62 106 183 107 114 96 72 108 50 102 101 97 69 115 98 31 62 35 106 111 114 115 119 114 114 113 107 107 102 102 99 81 78 81 88 47 96 90 76 85 103 120 103 109 125 137 148 173 172 187 172 147 131 136 147 132 136 132 136 133 117 122 118 118 116 112 110 113 111 107 106 103 100 102 103 97 95 89 86 83 76 82 81 77 76
39 348 359 88 69 135 170 130 123 91 80 105 122 233 198 135 116 105 127 109 107 113 125 51 151 146 74 80 34 114 122 106 100 112 114 111 106 107 106 101 101 95 88 86 77 82 88 63 59 74 101 92 116 125 117 126 136 149 160 170 172 183 165 143 125 134 153 138 138 134 132 132 121 127 121 117 116 115 113 111 109 104 104 103 105 104 100 100 99 96 84 79 81 78 75 84 96
99 75 37 78 356 47 118 100 158 110 95 132 155 231 116 142 143 133 93 88 118 120 72 111 147 93 100 69 123 117 127 98 110 113 113 111 106 102 100 101 98 93 93 87 87 98 85 70 31 70 98 63 66 123 127 141 146 152 156 156 167 185 165 139 136 145 167 136 139 133 132 136 134 125 120 119 115 111 105 106 103 103 106 103 102 101 97 95 94 94 93 91 93 79 69 61 65
99 195 116 109 290 110 118 135 137 129 116 181 264 138 145 125 169 134 116 100 98 25 128 132 85 98 83 101 130 156 139 115 115 111 107 104 103 101 99 100 97 92 92 91 101 116 117 101 64 52 62 65 351 8 125 137 144 157 155 155 166 175 161 135 132 137 149 141 138 136 132 136 135 125 125 127 121 110 108 108 108 108 107 108 105 99 95 92 88 83 82 80 78 83 71 66 55
81 213 81 121 57 73 295 148 173 145 153 150 161 138 120 9 122 138 127 127 50 129 111 55 140 79 224 160 177 177 141 127 115 111 109 103 100 100 100 99 96 99 99 93 118 113 110 119 96 75 81 70 9 346 11 101 137 143 136 146 176 178 151 132 133 129 147 149 143 138 131 139 132 123 128 121 115 115 117 115 113 111 111 106 101 94 86 81 78 79 78 75 73 73 84 88 55
154 77 65 98 138 125 216 128 77 112 145 164 144 113 78 45 38 85 336 322 131 123 91 148 355 181 152 175 140 138 126 119 118 114 109 103 97 94 98 98 96 96 100 114 121 101 101 101 99 91 79 80 42 3 27 357 118 145 147 148 174 153 139 125 125 126 137 145 140 142 132 117 103 101 115 106 108 115 118 124 127 121 106 99 90 83 79 75 75 74 73 71 72 70 68 64 63
44 86 43 35 161 138 225 127 90 173 86 105 145 134 124 127 215 73 29 50 119 119 72 68 309 105 138 129 124 120 119 118 117 114 107 101 100 95 91 89 97 94 103 117 105 89 97 102 111 101 97 101 97 42 28 9 319 130 124 135 152 139 140 130 135 133 141 139 121 122 92 68 43 2 49 52 115 133 149 136 121 112 103 91 83 80 77 74 66 61 58 57 62 70 67 44 29
55 49 98 60 186 119 253 154 149 261 134 153 156 152 121 134 100 109 70 52 77 79 77 65 51 58 92 110 111 118 121 121 123 120 116 112 114 116 109 105 104 115 118 122 101 93 95 98 90 89 97 113 111 107 93 63 91 104 76 26 44 86 114 102 98 114 115 136 128 106 93 93 61 348 25 23 13 160 129 125 114 105 91 80 75 70 65 59 53 48 45 50 51 50 53 38 7
98 130 72 190 175 201 239 59 56 12 135 137 142 151 132 156 129 191 96 109 106 92 73 94 87 79 94 105 117 121 125 126 130 129 131 130 134 133 129 120 115 122 127 129 113 101 93 97 90 88 98 108 104 94 75 77 57 63 69 78 69 75 76 86 93 98 97 126 113 114 114 129 132 134 110 193 166 127 132 112 100 86 76 67 63 56 49 49 43 41 37 40 42 41 41 26 18
223 109 188 253 192 127 181 90 143 262 147 123 125 153 112 167 121 128 129 139 122 131 129 95 114 129 126 124 126 129 130 131 133 135 133 133 135 138 137 137 129 128 133 140 126 108 103 94 91 98 105 115 111 99 87 100 72 72 82 82 99 91 28 72 77 85 118 121 134 123 145 118 94 74 164 118 70 20 41 76 79 68 59 53 52 40 27 25 32 24 17 31 37 36 38 25 14
211 107 186 234 18 132 235 119 265 302 123 116 116 109 102 128 98 121 137 105 104 191 194 153 156 148 140 140 135 137 135 134 134 135 134 133 124 120 130 133 134 132 132 126 124 126 113 106 107 100 107 111 118 116 112 119 78 78 87 93 96 85 84 70 70 88 96 106 109 103 82 82 78 62 48 38 42 48 45 34 30 39 45 37 34 41 33 9 29 17 5 13 20 14 3 341 341
102 190 48 97 158 264 148 142 266 336 106 105 109 120 150 329 67 138 149 150 190 193 179 160 147 149 145 146 145 140 144 142 145 147 155 150 146 142 132 109 108 113 134 138 142 136 133 128 120 117 113 103 111 118 131 128 109 83 90 97 88 85 85 79 68 80 78 79 85 84 77 70 62 60 49 46 40 52 50 32 33 36 39 42 27 16 17 23 18 14 6 351 334 333 317 304 289
124 126 133 208 86 259 355 149 170 166 124 116 95 126 111 97 138 181 160 85 336 128 137 145 147 148 141 137 141 146 149 154 156 160 158 153 147 146 143 130 130 134 131 136 141 155 141 132 131 128 107 105 113 116 104 105 108 102 95 96 92 86 75 72 65 67 67 73 74 81 84 82 77 70 66 57 51 53 56 40 40 32 27 33 25 14 3 10 5 360 350 327 314 314 316 296 283
108 182 147 232 202 220 184 165 138 16 107 102 148 111 68 109 134 176 189 311 139 124 128 134 131 134 138 140 151 154 157 162 167 166 168 164 158 157 151 139 126 119 124 139 142 154 157 145 137 135 117 115 104 107 112 113 114 122 120 109 84 110 92 77 80 79 80 81 82 82 91 87 99 90 77 68 49 60 48 31 26 22 12 7 9 29 356 349 343 350 325 307 313 315 316 305 281
154 151 141 262 233 182 146 131 119 103 85 124 91 81 73 71 139 128 213 138 126 124 128 131 134 136 144 144 153 156 158 158 160 155 155 146 145 140 128 119 124 131 137 145 141 150 158 152 142 138 137 124 101 111 114 110 114 105 105 103 110 107 82 93 94 88 91 93 88 89 94 95 83 94 91 82 69 52 22 22 9 9 354 356 354 345 4 332 329 326 325 319 332 324 320 314 312
182 91 91 238 217 158 139 114 104 111 95 126 82 83 181 111 128 112 165 168 133 126 131 139 139 143 151 157 158 160 163 162 156 158 161 149 148 147 149 140 136 150 145 140 141 149 153 145 148 149 145 131 116 106 110 114 109 106 106 110 120 95 95 103 95 91 92 100 95 90 86 103 99 105 103 60 63 20 12 4 9 354 345 334 356 329 339 322 304 314 305 310 315 309 303 297 311
92 88 55 125 109 101 101 112 114 178 67 339 113 49 13 9 111 190 111 192 134 129 138 147 147 153 155 160 164 168 165 166 166 148 132 147 151 160 157 144 149 151 140 142 140 147 156 147 148 153 147 143 116 121 122 115 104 99 114 106 93 106 114 107 96 93 86 84 88 83 84 94 115 103 99 86 64 29 3 3 0 353 329 332 339 312 310 289 288 278 298 304 304 302 290 302 302
95 112 75 58 72 58 80 88 126 148 47 4 56 58 349 351 82 206 156 185 145 139 147 154 155 156 159 162 167 172 176 168 146 151 153 162 168 168 168 163 157 153 155 151 140 144 150 155 150 157 154 140 137 126 135 119 114 114 116 97 103 113 120 102 105 98 86 68 70 78 68 50 98 98 101 82 58 18 359 356 343 340 305 317 321 295 296 290 285 296 292 285 283 291 301 304 294
138 198 100 97 83 58 26 69 284 225 76 33 66 54 342 15 230 210 165 157 147 143 149 157 160 160 161 166 165 175 181 165 161 170 175 168 161 166 171 166 159 156 157 143 140 147 154 154 152 157 155 142 137 143 133 126 113 119 123 115 125 132 116 110 114 116 93 68 81 91 100 112 73 124 105 78 30 21 6 344 330 304 294 306 297 287 298 335 334 331 326 340 323 328 333 327 316
114 41 106 111 79 54 359 303 83 77 29 46 23 134 256 296 293 155 160 144 136 135 148 158 162 162 166 169 173 180 178 162 177 180 169 160 164 165 166 165 161 156 152 140 143 155 152 153 149 151 158 149 150 140 132 125 123 125 123 116 131 128 128 130 131 123 118 104 78 123 135 198 116 93 107 37 46 350 342 331 306 306 322 323 318 21 357 353 347 351 340 354 345 343 328 314 324
61 198 42 92 124 94 251 316 151 96 343 7 12 140 233 266 157 149 149 148 149 155 158 160 163 165 170 176 176 181 192 191 183 174 167 157 160 162 162 160 157 152 146 149 159 156 153 148 155 158 165 156 156 151 143 135 133 131 124 125 139 138 145 146 148 148 158 158 147 127 155 189 137 82 58 48 325 336 314 314 306 298 326 328 5 16 20 343 349 2 3 352 331 328 297 290 312
65 342 25 325 93 114 303 42 333 128 118 342 27 101 203 219 171 166 155 154 155 158 165 166 167 169 175 177 179 182 197 202 185 170 165 160 160 162 167 166 158 159 163 160 154 153 157 152 158 159 162 161 155 158 146 142 141 137 137 150 130 148 149 158 165 170 173 171 181 185 186 214 224 252 265 182 293 299 285 289 291 324 318 355 35 9 12 1 346 2 5 353 350 329 336 318 305
14 67 6 62 86 123 158 152 15 59 110 50 39 186 109 127 184 156 163 156 165 161 168 172 175 175 177 180 182 184 185 204 197 173 165 162 164 164 169 168 167 165 161 160 158 156 159 162 163 160 170 169 157 153 143 142 136 140 149 145 145 150 155 166 161 156 159 184 184 211 210 221 242 246 242 234 244 269 266 272 288 303 307 22 25 23 12 9 2 350 337 2 106 302 318 317 327
300 41 145 270 139 144 124 72 23 131 117 139 32 112 196 255 147 158 159 160 160 167 175 182 183 183 185 183 180 174 184 185 198 186 173 168 166 165 167 169 165 163 164 165 161 163 165 165 165 163 164 169 159 159 158 148 142 135 138 136 154 157 160 160 160 158 191 194 190 217 210 221 231 231 232 223 225 232 231 239 265 271 358 41 31 5 345 351 342 7 342 323 337 316 303 315 316
183 141 110 132 93 345 118 150 188 149 101 132 70 82 50 317 145 160 169 164 170 180 181 186 187 190 192 187 183 175 181 190 204 192 174 167 161 162 165 166 163 166 168 167 162 157 156 163 160 166 160 164 161 153 149 130 115 103 106 117 120 151 96 115 148 192 219 213 217 216 206 211 228 227 232 216 211 227 216 227 246 232 105 72 36 356 332 325 342 19 359 316 317 273 245 281 297
174 150 140 142 150 194 157 63 113 120 125 143 170 169 154 141 148 152 164 174 182 191 181 177 192 204 202 196 189 177 185 201 201 188 174 167 164 165 165 165 165 168 167 167 162 158 157 161 158 158 158 157 147 140 138 129 122 138 132 96 117 214 220 205 183 223 216 229 237 216 209 208 215 216 204 183 189 195 198 212 226 100 77 102 336 320 313 329 332 343 341 338 321 322 261 276 315
100 85 95 128 110 59 72 67 127 262 215 101 165 93 143 169 158 160 161 168 190 183 183 193 199 202 205 205 197 186 188 200 191 181 175 173 166 165 161 161 163 163 164 168 166 167 165 169 162 172 164 153 152 151 155 154 144 128 94 168 191 188 195 178 241 250 231 220 232 226 196 189 185 199 174 152 179 199 180 176 169 36 104 151 242 267 291 302 289 250 303 319 313 338 317 352 332
117 104 117 89 44 126 141 141 162 201 111 85 102 130 171 182 155 140 113 163 199 193 194 200 203 209 208 204 203 194 197 139 144 162 173 167 163 160 158 160 162 167 173 169 176 175 170 167 175 171 156 162 164 165 166 165 167 174 157 181 163 162 184 191 225 239 225 214 204 226 218 175 163 175 168 161 182 184 168 175 176 204 172 229 245 265 286 287 313 326 306 315 211 295 286 319 321
79 128 127 108 107 98 70 80 122 306 73 146 137 151 187 224 261 308 179 183 214 205 197 202 195 205 214 214 209 199 157 169 170 177 172 176 170 165 165 169 174 176 171 171 173 169 169 172 178 169 170 168 169 162 155 172 172 166 156 159 166 173 211 196 187 249 218 235 226 222 220 187 165 186 184 180 178 191 181 172 205 189 185 246 279 305 330 314 319 322 282 270 316 266 263 264 10
113 100 120 191 186 164 179 257 166 29 44 157 149 147 229 336 311 279 264 185 228 226 209 209 193 201 209 210 203 194 183 167 174 173 177 175 174 172 168 172 172 167 169 173 172 172 174 177 178 170 177 172 164 169 171 172 169 180 174 154 177 158 187 182 160 110 124 184 248 227 250 208 194 205 185 164 148 177 184 193 174 178 211 168 232 285 307 303 318 328 328 251 214 327 343 329 39
175 158 161 159 187 217 74 175 131 68 37 51 91 69 328 216 226 249 277 258 286 265 242 204 227 216 212 220 223 198 189 178 173 175 173 169 172 181 181 176 167 171 176 179 177 175 178 181 182 176 175 176 171 175 172 164 155 147 138 65 89 108 34 80 124 244 194 214 221 236 234 210 217 221 199 162 147 173 197 184 178 214 214 217 194 256 280 286 305 281 276 256 229 215 336 329 336
321 220 189 187 190 142 101 128 133 91 345 277 149 102 246 204 219 217 223 242 242 237 210 213 206 215 201 205 209 207 200 184 175 176 175 175 180 182 178 170 175 177 181 185 184 177 172 175 174 174 171 173 174 180 169 163 167 161 147 149 157 181 196 155 188 209 207 194 211 204 211 204 221 222 209 206 176 154 196 197 190 197 231 245 229 246 273 314 309 307 280 232 174 222 198 37 349
355 259 170 166 165 124 133 148 135 178 209 197 220 183 264 205 215 214 205 209 230 218 217 221 203 205 200 202 203 197 190 187 190 178 175 174 177 174 179 182 183 184 188 178 181 183 175 168 171 173 175 180 177 178 170 167 165 167 174 182 183 188 194 225 214 213 198 207 194 192 210 207 216 220 221 200 205 194 184 202 199 206 233 242 244 220 270 273 285 288 302 235 292 82 131 72 17
224 233 145 146 137 146 162 149 129 98 93 13 178 96 203 298 243 214 195 205 224 228 226 225 205 199 205 201 199 196 191 184 180 182 182 182 177 178 182 187 185 191 178 171 178 179 178 171 167 174 176 179 180 171 173 175 170 176 177 183 187 189 192 209 202 208 200 180 185 201 193 212 211 219 225 214 210 210 194 208 204 213 226 244 232 232 253 271 278 257 176 157 57 16 83 96 334
229 259 150 158 149 130 125 119 93 95 75 149 212 206 347 258 274 198 179 204 223 230 223 222 210 199 205 204 197 196 191 187 181 181 184 182 183 186 183 184 191 180 173 177 180 180 178 174 169 169 177 180 179 171 172 180 172 175 179 179 186 202 199 205 198 191 179 179 190 197 201 212 214 219 220 222 220 216 216 209 204 210 213 231 224 233 248 246 249 267 267 156 126 71 36 104 346
102 94 73 73 76 69 61 42 52 23 69 242 196 191 214 288 245 144 186 206 224 226 218 215 210 200 199 203 199 194 190 188 188 186 184 186 186 186 186 181 174 184 183 180 177 171 173 171 173 171 180 181 175 175 174 178 173 167 175 182 185 195 202 193 174 189 186 177 194 201 201 207 213 213 223 225 228 221 220 211 198 207 215 223 241 250 259 247 231 227 221 215 134 142 127 187 288
115 93 89 64 52 28 29 57 358 54 347 236 161 198 194 301 244 185 157 207 213 219 203 213 219 211 205 203 194 187 186 187 187 188 191 191 189 184 170 175 183 176 175 174 174 176 174 175 177 180 186 181 174 176 173 181 177 170 180 182 187 190 188 174 176 204 181 177 199 203 197 210 203 212 210 224 221 218 218 214 206 211 207 217 249 248 252 260 252 229 197 192 172 180 183 67 87
121 109 111 88 40 24 353 3 62 181 270 271 193 178 194 226 291 227 215 228 227 204 195 199 210 211 202 196 196 192 185 184 184 183 189 190 180 173 172 176 173 174 168 174 178 174 177 180 178 183 188 187 181 177 177 181 179 183 185 183 190 193 182 180 186 192 190 194 197 200 205 199 211 211 214 221 225 213 210 213 215 203 212 216 248 245 268 261 272 250 208 201 215 221 187 152 125
88 114 111 109 88 52 289 22 234 215 206 200 127 140 171 235 240 128 279 264 244 203 209 201 201 204 202 198 191 186 184 180 181 186 183 178 178 176 179 177 167 168 177 178 178 178 179 180 181 182 191 191 190 180 184 183 181 187 186 189 199 191 191 190 192 194 193 197 196 199 189 206 207 209 219 214 220 207 198 208 209 212 223 218 227 238 255 255 250 222 227 230 206 217 214 190 220
136 141 143 109 107 60 168 256 274 316 300 241 165 164 226 276 297 259 258 247 229 219 208 207 200 194 194 193 188 182 184 182 184 183 181 179 180 184 183 176 177 180 179 179 178 178 178 181 183 186 192 189 189 187 188 186 193 189 185 189 196 190 196 196 197 197 198 204 194 199 195 199 200 207 204 212 212 199 198 204 201 210 214 210 208 222 236 238 203 195 200 227 232 227 194 190 229
179 168 159 167 155 157 187 188 184 212 199 338 138 125 234 142 247 327 278 286 266 213 203 199 198 194 187 184 182 177 183 187 181 181 182 183 184 183 182 181 183 182 181 179 178 179 177 181 183 190 189 190 189 192 188 193 195 191 187 190 191 194 198 197 201 198 194 198 202 199 208 204 203 212 208 213 197 201 204 193 201 206 214 213 204 211 214 208 196 187 182 209 234 206 209 205 242
247 229 40 109 211 153 139 204 130 137 113 102 173 217 196 176 244 340 340 335 317 201 190 166 177 180 181 177 180 180 185 184 184 183 184 186 184 183 183 185 185 184 181 180 180 176 181 186 187 190 189 187 190 191 193 193 196 189 185 187 193 192 201 201 204 203 199 200 198 200 205 206 213 212 217 203 203 195 199 205 200 212 213 213 207 209 209 202 198 195 198 190 225 187 198 216 241
202 106 217 213 210 99 107 65 56 99 61 222 181 299 301 296 333 3 6 21 14 3 160 164 166 172 177 185 184 183 183 182 183 184 184 184 183 186 187 186 185 184 181 184 184 183 185 183 185 191 193 189 191 194 193 193 192 188 191 189 186 189 193 192 196 198 196 197 199 205 202 209 208 210 214 206 203 199 204 201 204 213 212 213 211 209 204 203 198 199 199 199 219 195 195 227 217
98 175 233 189 124 113 120 140 332 59 171 265 151 243 311 20 235 348 346 2 0 360 31 163 164 165 182 191 189 183 184 185 185 185 184 182 183 184 188 191 188 186 186 187 188 188 187 185 185 188 189 192 196 194 194 193 192 194 191 189 191 192 191 193 193 196 192 186 199 201 207 202 209 210 207 208 196 202 205 212 208 214 211 203 210 209 200 199 190 203 206 210 212 181 210 216 219
153 190 174 120 261 271 338 96 59 114 284 275 289 260 260 136 290 346 332 338 336 329 312 157 170 180 188 193 194 187 179 177 183 185 182 183 183 187 189 191 191 191 191 190 189 185 184 188 189 188 193 197 194 192 192 193 193 196 195 193 189 191 191 191 193 191 183 190 198 197 200 212 208 205 206 207 199 200 203 214 212 218 207 210 208 209 201 198 191 202 202 219 209 194 216 245 238
31 110 103 30 107 158 140 198 167 116 214 54 288 33 196 73 336 317 324 328 321 317 298 233 195 188 188 190 192 185 185 183 180 180 183 184 188 190 189 189 190 190 191 192 188 185 188 191 187 194 200 198 196 197 192 193 194 196 196 189 194 192 190 189 186 186 188 194 200 198 205 203 208 197 205 202 204 207 203 208 212 218 218 211 210 213 203 200 192 204 206 214 215 198 221 240 259
347 21 304 243 23 220 106 39 109 180 169 185 188 303 336 46 329 331 329 330 329 313 271 249 216 192 189 187 184 182 183 188 183 178 179 184 186 187 189 192 195 194 192 188 186 190 194 189 192 195 192 191 195 199 194 199 190 197 193 193 193 191 194 187 182 186 194 202 204 205 206 212 190 206 195 199 205 210 206 209 210 214 218 214 209 215 204 197 193 205 206 215 214 202 217 228 230
153 160 216 175 118 128 142 246 357 83 101 207 135 241 268 334 345 337 324 339 347 347 278 217 350 351 138 96 162 170 170 176 170 167 169 173 164 164 165 161 160 161 160 183 191 187 197 199 200 196 194 194 196 197 197 195 192 194 199 200 197 191 189 184 190 190 195 196 203 206 206 196 202 210 191 206 209 212 208 208 214 216 220 216 213 215 207 195 200 205 215 210 217 212 218 226 206